Effective Sunday, March 17, 2024, the National Weather Service National Data Buoy Center will discontinue its Dial-A-Buoy Interactive Voice Response system. For more information, see Service Change Notice 24-06 (PDF).

Station OSGN6 - 9052030 - Oswego, NY Image indicating link to RSS feed of recent meteorological observations for station OSGN6


Conditions at OSGN6 as of
(2:42 am EST)
0742 GMT on 02/29/2024:
     

Click on the graph icon in the table below to see a time series plot of the last five days of that observation.

5-day plot - Wind Direction Wind Direction (WDIR):WNW ( 300 deg true )
5-day plot - Wind Speed Wind Speed (WSPD): 21.0 kts
5-day plot - Wind Gust Wind Gust (GST): 25.1 kts
5-day plot - Atmospheric Pressure Atmospheric Pressure (PRES):30.04 in
5-day plot - Wind Speed at 10 Meters Wind Speed at 10 meters (WSPD10M): 19.4 kts
5-day plot - Wind Speed at 20 Meters Wind Speed at 20 meters (WSPD20M): 21.4 kts
5-day plot -  Wind Speed, Wind Gust and Atmospheric Pressure Combined plot of Wind Speed, Gust, and Air Pressure
NOS Water Level Observation Network Water Level
Previous observations
TIME
(EST)
5-day plot - Wind Direction
WDIR
 
5-day plot - Wind Speed
WSPD
kts
5-day plot - Wind Gust
GST
kts
5-day plot - Wave Height
WVHT
ft
5-day plot - Dominant Wave Period
DPD
sec
5-day plot - Average Wave Period
APD
sec
5-day plot - Mean Wave Direction
MWD
 
5-day plot - Atmospheric Pressure
PRES
in
5-day plot - Pressure Tendency
PTDY
in
5-day plot - Air Temperature
ATMP
°F
5-day plot - Water Temperature
WTMP
°F
5-day plot - Dew Point
DEWP
°F
5-day plot - Salinity
SAL
psu
5-day plot - Visibility
VIS
nmi
5-day plot - Tide (above MLLW)
TIDE
ft
2024-02-29 02:36 am NW 21.0 28.9----30.04-------
2024-02-29 02:30 amWNW 21.0 27.0----30.03-------
2024-02-29 02:24 am NW 22.0 28.9----30.04-------
2024-02-29 02:18 am NW 24.1 28.0----30.04-------
2024-02-29 02:12 amWNW 20.0 26.0----30.03-------
2024-02-29 02:06 amWNW 22.0 27.0----30.03-------
2024-02-29 02:00 amWNW 25.1 28.0----30.03+0.07------
2024-02-29 01:54 amWNW 26.0 31.1----30.03-------
2024-02-29 01:48 amWNW 22.0 32.1----30.03-------
2024-02-29 01:42 amWNW 24.1 29.9----30.03-------
2024-02-29 01:36 amWNW 22.9 28.9----30.03-------
2024-02-29 01:30 amWNW 24.1 28.9----30.03-------
2024-02-29 01:24 amWNW 20.0 28.0----30.02-------
2024-02-29 01:18 amWNW 22.0 32.1----30.02-------
2024-02-29 01:12 amWNW 22.9 32.1----30.02-------
2024-02-29 01:06 amWNW 22.9 32.1------------
2024-02-29 01:00 amWNW 26.0 33.0----30.01+0.06------
2024-02-29 12:54 amWNW 26.0 34.0----30.01-------
2024-02-29 12:48 am W 26.0 39.0----30.01-------
2024-02-29 12:42 amWNW 28.9 35.9----30.01-------
2024-02-29 12:30 amWNW 29.9 34.0----30.01-------
2024-02-29 12:24 amWNW 31.1 40.0----30.00-------
2024-02-29 12:18 amWNW 26.0 33.0----29.99-------
2024-02-29 12:12 amWNW 26.0 31.1----29.99-------
2024-02-29 12:00 amWNW 25.1 29.9----29.98-------
2024-02-28 11:54 pmWNW 22.0 28.9----29.98-------
2024-02-28 11:48 pmWNW 24.1 31.1------------
2024-02-28 11:42 pmWNW 25.1 36.9----29.97-------
2024-02-28 11:36 pmWNW 27.0 32.1----29.97-------
2024-02-28 11:30 pmWNW 26.0 34.0----29.97-------
2024-02-28 11:24 pmWNW 28.9 38.1----29.97-------
2024-02-28 11:18 pmWNW 28.9 39.0----29.97-------
2024-02-28 11:12 pmWNW 31.1 39.0----29.97-------
2024-02-28 11:06 pmWNW 33.0 41.0----29.97-------
2024-02-28 11:00 pmWNW 31.1 36.9----29.96+0.19------
2024-02-28 10:54 pmWNW 33.0 41.0----29.96-------
2024-02-28 10:42 pmWNW 31.1 39.0----29.96-------
2024-02-28 10:36 pmWNW 31.1 42.9----29.96-------
2024-02-28 10:30 pmWNW 35.0 44.1----29.96-------
2024-02-28 10:24 pmWNW 34.0 46.0----29.96-------
2024-02-28 10:18 pmWNW 35.9 49.0----29.96-------
2024-02-28 10:12 pmWNW 36.9 46.0----29.96-------
2024-02-28 10:06 pmWNW 35.0 47.0----29.96-------
2024-02-28 10:00 pm W 36.9 47.0----29.95+0.28------
2024-02-28 09:54 pm W 42.0 51.1----29.94-------
2024-02-28 09:48 pm W 41.0 49.9----29.93-------
2024-02-28 09:42 pmWNW 38.1 52.1----29.92-------
2024-02-28 09:36 pm W 42.9 52.1----29.91-------
2024-02-28 09:30 pm W 40.0 49.9----29.90-------
2024-02-28 09:24 pm W 40.0 49.0----29.89-------
2024-02-28 09:18 pm W 39.0 54.0----29.88-------
2024-02-28 09:12 pm W 40.0 52.1----29.87-------
2024-02-28 09:06 pm W 42.0 52.1----29.86-------
2024-02-28 08:54 pm W 44.1 54.0----29.84-------
2024-02-28 08:48 pm W 41.0 51.1----29.83-------
2024-02-28 08:42 pm W 42.0 52.1----29.83-------
2024-02-28 08:36 pm W 40.0 47.0----29.83-------
2024-02-28 08:30 pm W 35.9 46.0----29.82-------
2024-02-28 08:24 pm W 41.0 47.0----29.81-------
2024-02-28 08:18 pm W 35.0 44.1----29.80-------
2024-02-28 08:12 pm W 36.9 48.0----29.80-------
2024-02-28 08:06 pm W 32.1 54.0----29.78-------
2024-02-28 08:00 pm W 35.0 49.0----29.77+0.31------
2024-02-28 07:54 pm W 36.9 47.0----29.76-------
2024-02-28 07:48 pmWSW 32.1 46.0----29.75-------
2024-02-28 07:42 pm W 41.0 55.0----29.75-------
2024-02-28 07:36 pm W 39.0 47.0----29.74-------
2024-02-28 07:30 pm W 34.0 45.1----29.72-------
2024-02-28 07:24 pm W 31.1 42.9----29.72-------
2024-02-28 07:18 pm W 36.9 48.0----29.71-------
2024-02-28 07:12 pm W 31.1 45.1----29.69-------
2024-02-28 07:06 pm W 42.0 51.1----29.68-------
2024-02-28 07:00 pm W 38.1 54.0----29.67+0.28------
2024-02-28 06:54 pm W 42.9 52.1----29.67-------
2024-02-28 06:48 pm W 42.0 53.0----29.66-------
2024-02-28 06:42 pm W 35.9 49.9------------
2024-02-28 06:36 pm W 38.1 49.9------------
2024-02-28 06:30 pm W 35.0 47.0------------
2024-02-28 06:24 pm-------29.62-------
2024-02-28 06:18 pm-------29.61-------
2024-02-28 05:36 pm W 34.0 48.0----29.54-------
2024-02-28 05:30 pm W 35.9 49.0----29.54-------
2024-02-28 05:24 pm W 41.0 49.9----29.52-------
2024-02-28 05:18 pm W 42.9 52.1----29.52-------
2024-02-28 05:12 pm W 42.0 54.0----29.50-------
2024-02-28 05:06 pm W 41.0 52.1----29.49-------
2024-02-28 05:00 pm W 39.0 47.0----29.46+0.25------
2024-02-28 04:54 pm W 38.1 49.0----29.45-------
2024-02-28 04:42 pm W 39.0 48.0----29.43-------
2024-02-28 04:36 pm W 35.0 42.0----29.44-------
2024-02-28 04:30 pm W 39.0 51.1----29.40-------
2024-02-28 04:24 pm W 41.0 48.0----29.41-------
2024-02-28 04:18 pm W 39.0 49.9----29.39-------
2024-02-28 04:12 pm W 38.1 45.1----29.40-------
2024-02-28 04:06 pm W 38.1 47.0----29.39-------
2024-02-28 04:00 pm W 41.0 49.0----29.39+0.15------
2024-02-28 03:54 pm W 36.9 42.0----29.37-------
2024-02-28 03:42 pm W 35.0 42.0----29.35-------
2024-02-28 03:36 pm W 33.0 40.0----29.34-------
2024-02-28 03:30 pm W 31.1 35.9----29.33-------
2024-02-28 03:24 pm W 28.0 39.0----29.33-------
2024-02-28 03:18 pm W 28.9 38.1----29.32-------
2024-02-28 03:12 pm W 21.0 29.9----29.29-------
2024-02-28 03:06 pm W 24.1 31.1----29.28-------
2024-02-28 03:00 pm S 20.0 25.1----29.22-0.03 61.9- 52.3---
2024-02-28 02:54 pm S 18.1 24.1----29.21- 61.5- 52.0---
2024-02-28 02:48 pm S 19.0 28.9----29.21- 62.1- 52.3---
2024-02-28 02:42 pm S 21.0 29.9----29.22- 61.9- 52.2---
2024-02-28 02:36 pm S 20.0 28.0----29.21- 61.9- 52.2---
2024-02-28 02:30 pm S 20.0 28.0----29.21-------
2024-02-28 02:24 pm S 19.0 27.0----29.21- 61.9- 52.2---
2024-02-28 02:18 pm S 19.0 25.1----29.21- 61.9- 52.2---
2024-02-28 02:12 pm S 15.9 21.0----29.21- 61.5- 52.2---
2024-02-28 02:06 pm S 15.9 24.1----29.20- 61.5- 52.2---
2024-02-28 02:00 pm S 15.0 22.0----29.21-0.12 61.5- 52.2---
2024-02-28 01:54 pm S 15.0 22.9----29.21- 61.3- 52.0---
2024-02-28 01:48 pm S 15.9 27.0----29.21- 61.5- 52.2---
2024-02-28 01:42 pm S 17.1 22.0----29.21- 61.0- 51.8---
2024-02-28 01:36 pm S 15.9 25.1----29.22- 61.3- 52.0---
2024-02-28 01:30 pm S 22.0 28.0----29.23- 61.3- 52.0---
2024-02-28 01:24 pm S 18.1 25.1----29.23- 61.0- 51.6---
2024-02-28 01:18 pm S 19.0 29.9----29.24- 61.0- 51.6---
2024-02-28 01:12 pm S 21.0 28.9----29.24- 61.3- 51.8---
2024-02-28 01:06 pm S 19.0 26.0----29.23- 61.2- 51.6---
2024-02-28 01:00 pm S 21.0 29.9----29.24-0.09 61.3- 51.4---
2024-02-28 12:54 pm S 18.1 25.1----29.24- 61.7- 51.8---
2024-02-28 12:48 pm S 18.1 25.1----29.24- 61.5- 51.6---
2024-02-28 12:42 pm S 19.0 25.1----29.24- 61.3- 51.6---
2024-02-28 12:36 pm S 19.0 27.0----29.25- 61.2- 51.4---
2024-02-28 12:30 pm S 22.9 29.9----29.25- 61.2- 51.4---
2024-02-28 12:24 pm S 19.0 34.0----29.23- 61.0- 51.8---
2024-02-28 12:18 pm S 17.1 32.1----29.25- 61.2- 52.2---
2024-02-28 12:12 pm S 18.1 26.0----29.25-------
2024-02-28 12:06 pm S 18.1 25.1----29.25- 61.2- 52.5---
2024-02-28 12:00 pm S 15.9 27.0----29.25-0.08 60.3- 52.3---
2024-02-28 11:54 am S 14.0 25.1----29.26- 59.7- 52.3---
2024-02-28 11:48 am S 18.1 26.0----29.27- 59.5- 52.3---
2024-02-28 11:42 am S 15.9 28.0----29.28- 58.8- 52.2---
2024-02-28 11:36 am S 15.9 22.0----29.28- 58.5- 52.2---
2024-02-28 11:24 am S 17.1 22.0----29.29- 58.3- 52.5---
2024-02-28 11:18 am S 15.0 24.1----29.30- 57.7- 52.3---
2024-02-28 11:12 am S 15.9 24.1----29.29- 57.7- 52.5---
2024-02-28 11:06 am S 18.1 31.1----29.31- 57.7- 52.7---
2024-02-28 11:00 am S 19.0 22.9----29.32-0.02 57.7- 53.1---
2024-02-28 10:54 am S 19.0 26.0----29.32- 57.2- 52.9---
2024-02-28 10:42 am S 17.1 24.1----29.31- 56.7- 53.1---
2024-02-28 10:36 amSSE 18.1 27.0----29.31- 56.7- 53.4---
2024-02-28 10:30 am S 15.9 24.1----29.31-------
2024-02-28 10:24 am S 15.0 22.0----29.31- 55.8- 52.0---
2024-02-28 10:18 am S 17.1 24.1----29.32- 55.8- 51.3---
2024-02-28 10:12 am S 17.1 26.0----29.33- 55.8- 50.5---
2024-02-28 10:06 am S 18.1 26.0----29.33- 57.2- 50.5---
2024-02-28 10:00 am S 15.9 25.1----29.33-0.05------
2024-02-28 09:54 am S 17.1 27.0----29.33- 58.5- 50.2---
2024-02-28 09:48 am S 15.9 25.1----29.33- 58.3- 50.0---
2024-02-28 09:42 am S 17.1 24.1----29.33- 58.3- 50.0---
2024-02-28 09:36 am S 15.0 22.0----29.33- 58.3- 50.0---
2024-02-28 09:30 am S 15.9 22.0----29.33- 58.1- 49.8---
2024-02-28 09:24 am S 15.9 22.0----29.33- 58.1- 49.8---
2024-02-28 09:18 am S 13.0 18.1----29.33- 57.9- 49.8---
2024-02-28 09:12 am S 15.9 22.0----29.33- 58.1- 50.0---
2024-02-28 09:06 am S 13.0 19.0----29.34- 57.7- 49.6---
2024-02-28 09:00 amSSE 12.0 17.1----29.33-0.04 57.7- 49.8---
2024-02-28 08:54 amSSE 14.0 24.1----29.33- 57.7- 49.6---
2024-02-28 08:48 amSSE 15.0 22.9----29.33- 58.1- 50.0---
2024-02-28 08:42 amSSE 15.9 24.1----29.33- 57.7- 50.0---
2024-02-28 08:36 am S 17.1 21.0----29.34- 57.4- 49.8---
2024-02-28 08:30 amSSE 13.0 20.0----29.35- 57.4- 50.2---
2024-02-28 08:24 am S 17.1 22.9----29.36- 56.8- 49.6---
2024-02-28 08:18 am S 15.9 24.1----29.35- 56.7- 49.6---
2024-02-28 08:12 am S 15.9 24.1----29.35- 56.7- 49.8---
2024-02-28 08:06 amSSE 13.0 22.9----29.35- 56.3- 49.8---
2024-02-28 08:00 amSSE 17.1 21.0----29.34-0.07 56.3- 49.8---
2024-02-28 07:54 amSSE 15.9 25.1----29.35- 56.3- 50.0---
2024-02-28 07:48 amSSE 13.0 27.0----29.35- 56.1- 50.0---
2024-02-28 07:42 amSSE 17.1 21.0----29.36- 56.1- 50.0---
2024-02-28 07:36 amSSE 15.0 20.0----29.36- 55.8- 49.8---
2024-02-28 07:30 am S 12.0 24.1----29.36- 55.4- 49.6---
2024-02-28 07:24 amSSE 15.0 22.0----29.36- 55.6- 49.6---
2024-02-28 07:18 am S 14.0 25.1----29.36- 55.2- 49.3---
2024-02-28 07:12 am S 15.0 22.0----29.37- 55.6- 49.5---
2024-02-28 07:06 am S 14.0 22.9----29.37- 55.2- 48.9---
2024-02-28 07:00 am S 15.9 19.0----29.38-0.08 55.4- 48.9---
2024-02-28 06:54 amSSE 14.0 20.0----29.38- 55.0- 48.6---
2024-02-28 06:48 am S 14.0 22.0----29.38- 54.9- 48.4---
2024-02-28 06:42 amSSE 12.0 19.0----29.38- 54.7- 48.4---
2024-02-28 06:36 amSSE 12.0 19.0----29.38- 54.5- 48.0---
2024-02-28 06:30 amSSE 14.0 20.0----29.38- 54.5- 48.2---
2024-02-28 06:24 amSSE 12.0 15.9----29.37- 54.3- 48.0---
2024-02-28 06:18 amSSE 11.1 17.1----29.37- 54.3- 48.0---
2024-02-28 06:12 amSSE 11.1 15.9----29.38- 54.1- 47.8---
2024-02-28 06:06 amSSE 11.1 17.1----29.38-------
2024-02-28 06:00 amSSE 13.0 18.1----29.37-0.13 54.3- 47.7---
2024-02-28 05:54 amSSE 8.9 15.0----29.37- 54.1- 47.5---
2024-02-28 05:48 amSSE 11.1 15.0----29.38- 54.3- 47.1---
2024-02-28 05:42 amSSE 12.0 18.1----29.40- 54.7- 47.3---
2024-02-28 05:36 amSSE 13.0 17.1----29.40- 54.5- 47.1---
2024-02-28 05:30 amSSE 14.0 19.0----29.41- 54.7- 47.1---
2024-02-28 05:24 amSSE 13.0 19.0----29.40- 54.7- 47.1---
2024-02-28 05:18 amSSE 11.1 19.0----29.41- 54.5- 46.9---
2024-02-28 05:12 amSSE 9.9 15.9----29.41- 54.5- 47.1---
2024-02-28 05:06 amSSE 9.9 15.0----29.41- 54.5- 47.1---
2024-02-28 05:00 amSSE 8.9 17.1----29.42-0.10 54.3- 46.9---
2024-02-28 04:54 amSSE 8.9 18.1----29.42- 54.1- 46.8---
2024-02-28 04:48 amSSE 8.9 15.0----29.43- 54.1- 46.8---
2024-02-28 04:42 amSSE 9.9 13.0----29.43- 54.1- 46.9---
2024-02-28 04:36 amSSE 12.0 17.1----29.43- 54.0- 46.8---
2024-02-28 04:30 amSSE 7.0 15.0----29.44- 53.6- 46.4---
2024-02-28 04:24 amSSE 9.9 15.0------ 53.6- 46.4---
2024-02-28 04:18 am SE 7.0 13.0----29.44- 53.6- 46.4---
2024-02-28 04:12 amSSE 7.0 15.0----29.44- 53.4- 46.2---
2024-02-28 04:00 amSSE 11.1 15.9----29.47-0.07 53.1- 45.9---
2024-02-28 03:54 amSSE 9.9 15.0----29.47- 53.1- 45.9---
2024-02-28 03:48 amSSE 8.9 17.1----29.47- 53.1- 45.9---
2024-02-28 03:42 amSSE 9.9 14.0----29.48- 53.2- 45.9---
2024-02-28 03:36 amSSE 9.9 15.0----29.48- 53.4- 45.9---
2024-02-28 03:30 amSSE 9.9 18.1----29.49- 53.4- 45.9---
2024-02-28 03:24 amSSE 13.0 18.1----29.50- 53.4- 45.9---
2024-02-28 03:18 amSSE 13.0 19.0----29.50- 53.2- 45.7---
2024-02-28 03:12 amSSE 12.0 18.1----29.50- 53.1- 45.5---
2024-02-28 03:06 amSSE 13.0 15.9----29.50- 53.1- 45.5---
2024-02-28 03:00 amSSE 11.1 15.9----29.50-0.04 53.1- 45.3---
2024-02-28 02:54 amSSE 13.0 15.9----29.50- 53.1- 45.3---